W2TAO Weather Reports


time (UTC)temp
F
wind
direction
speed
knots
gust
knots
rain 1hr
in
rain 24hr
in
rain mn
in
humidity
%
barometer
mb
20260509034840 42 10 0.0 1.7 0.00 0.07 0.07 93 1014.4
20260509034338 42 44 0.0 0.9 0.00 0.07 0.07 92 1014.4
20260509033835 42 63 0.0 0.9 0.00 0.07 0.07 92 1014.4
20260509033332 43 44 0.0 0.9 0.00 0.07 0.07 92 1014.4
20260509032828 43 32 0.0 0.0 0.00 0.07 0.07 92 1014.2
20260509032326 43 32 0.0 0.0 0.00 0.07 0.07 91 1014.2
20260509031824 44 352 0.0 0.9 0.00 0.07 0.07 91 1014.2
20260509031321 44 93 0.0 0.0 0.00 0.07 0.07 90 1014.2
20260509030819 44 101 0.0 0.9 0.00 0.07 0.07 90 1014.3
20260509030316 45 113 0.0 0.9 0.00 0.07 0.07 90 1014.3
20260509025813 45 293 0.0 0.9 0.00 0.07 0.07 89 1014.4
20260509025308 45 7 0.9 0.9 0.00 0.07 0.07 88 1014.4
20260509024804 46 243 0.0 0.0 0.00 0.07 0.07 88 1014.4
20260509024300 46 341 0.0 0.0 0.00 0.07 0.07 88 1014.2
20260509023757 46 352 0.0 0.0 0.00 0.07 0.07 88 1014.2
20260509023255 46 352 0.0 0.0 0.00 0.07 0.07 88 1014.2
20260509022750 46 352 0.0 0.0 0.00 0.07 0.07 87 1014.2
20260509022248 46 352 0.9 0.9 0.00 0.07 0.07 87 1014.2
20260509021745 46 315 0.0 0.0 0.00 0.07 0.07 86 1014.2
20260509021242 46 315 0.0 1.7 0.00 0.07 0.07 85 1013.9
20260509020740 46 66 0.0 0.0 0.00 0.07 0.07 86 1014.0
20260509020237 46 287 0.0 1.7 0.00 0.07 0.07 85 1014.1
20260509015735 46 110 0.0 0.9 0.00 0.07 0.07 86 1014.0
20260509015233 47 316 0.0 0.9 0.00 0.07 0.07 85 1014.1
20260509014729 47 4 0.9 1.7 0.00 0.07 0.07 85 1014.0
20260509014226 47 246 0.0 0.0 0.00 0.07 0.07 83 1013.9
20260509013723 47 246 0.0 0.9 0.00 0.07 0.07 83 1014.1
20260509013219 46 212 0.0 0.9 0.00 0.07 0.07 83 1013.7
20260509012715 46 267 0.9 1.7 0.00 0.07 0.07 83 1013.6
20260509012212 46 293 0.0 0.9 0.00 0.07 0.07 83 1013.7
20260509011710 47 296 1.7 1.7 0.00 0.07 0.07 84 1013.6
20260509011207 47 55 0.0 0.0 0.00 0.07 0.07 84 1013.6
20260509010705 47 311 0.0 0.9 0.00 0.07 0.07 83 1013.5
20260509010201 47 347 0.0 0.9 0.00 0.07 0.07 83 1013.4
20260509005659 47 336 0.0 0.0 0.00 0.07 0.07 81 1013.4
20260509005155 47 44 0.0 1.7 0.00 0.07 0.07 81 1013.4
20260509004650 47 85 0.0 0.9 0.00 0.07 0.07 81 1013.5
20260509004148 47 55 0.0 0.9 0.00 0.07 0.07 80 1013.3
20260509003647 47 315 0.0 0.0 0.00 0.07 0.07 79 1013.2
20260509003143 47 315 0.0 0.0 0.00 0.07 0.07 80 1013.0
20260509002641 47 32 0.0 0.0 0.00 0.07 0.07 80 1013.1
20260509002138 47 235 0.0 0.0 0.00 0.07 0.07 77 1013.1
20260509001636 47 235 0.0 0.0 0.00 0.07 0.07 77 1012.9
20260509001131 48 55 0.0 0.0 0.00 0.07 0.07 76 1012.7
20260509000630 48 135 0.0 0.0 0.00 0.07 0.07 74 1012.8
20260509000126 48 66 0.0 0.0 0.00 0.07 0.07 74 1012.8
20260508235623 49 55 0.0 0.0 0.00 0.07 0.07 74 1012.8
20260508235120 50 98 0.9 0.9 0.00 0.07 0.07 71 1012.7
20260508234617 50 326 0.0 0.9 0.00 0.07 0.07 70 1012.7
20260508234113 51 218 0.0 0.9 0.00 0.07 0.07 69 1012.6
20260508233613 51 341 0.9 1.7 0.00 0.07 0.07 66 1012.7
20260508233110 51 295 1.7 3.5 0.00 0.07 0.07 64 1012.6
20260508232607 52 232 0.9 1.7 0.00 0.07 0.07 63 1012.5
20260508232103 52 295 0.0 2.6 0.00 0.07 0.07 63 1012.5
20260508231602 52 264 1.7 3.5 0.00 0.07 0.07 63 1012.8
20260508231058 52 282 2.6 4.3 0.00 0.07 0.07 61 1012.8
20260508230554 53 240 0.9 3.5 0.00 0.07 0.07 64 1012.7
20260508230051 53 251 0.9 3.5 0.00 0.07 0.07 62 1012.7
20260508225549 53 260 1.7 3.5 0.00 0.07 0.07 61 1012.6
20260508225045 53 233 3.5 3.5 0.00 0.07 0.07 61 1012.7
20260508224543 53 230 3.5 3.5 0.00 0.07 0.07 61 1012.5
20260508224040 53 245 3.5 5.2 0.00 0.07 0.07 59 1012.5
20260508223538 53 286 0.0 3.5 0.00 0.07 0.07 61 1012.5
20260508223035 53 253 2.6 3.5 0.00 0.07 0.07 60 1012.5
20260508222533 53 251 2.6 4.3 0.00 0.07 0.07 58 1012.3
20260508222029 53 238 4.3 4.3 0.00 0.07 0.07 61 1012.4
20260508221526 53 267 1.7 3.5 0.00 0.07 0.07 60 1012.2
20260508221021 53 223 2.6 4.3 0.00 0.07 0.07 60 1012.3
20260508220518 54 251 3.5 3.5 0.00 0.07 0.07 60 1012.4
20260508220015 53 260 3.5 3.5 0.00 0.07 0.07 58 1012.3
20260508215511 53 245 1.7 5.2 0.00 0.07 0.07 60 1012.4
20260508215008 53 242 2.6 4.3 0.00 0.07 0.07 57 1012.3
20260508214506 54 276 2.6 3.5 0.00 0.07 0.07 58 1012.2
20260508214001 54 288 1.7 2.6 0.00 0.07 0.07 55 1012.4
20260508213500 54 247 3.5 4.3 0.00 0.07 0.07 54 1012.3
20260508212954 55 140 1.7 3.5 0.00 0.07 0.07 54 1012.2
20260508212451 55 44 0.0 3.5 0.00 0.07 0.07 54 1012.3
20260508211948 55 253 2.6 5.2 0.00 0.07 0.07 54 1012.4
20260508211443 56 264 1.7 1.7 0.00 0.07 0.07 53 1012.3
20260508210940 55 262 3.5 5.2 0.00 0.07 0.07 53 1012.3
20260508210437 54 246 3.5 7.8 0.00 0.07 0.07 53 1012.4
20260508205933 54 242 4.3 8.7 0.00 0.07 0.07 53 1012.5
20260508205431 54 262 5.2 7.0 0.00 0.07 0.07 53 1012.2
20260508204927 55 236 5.2 7.0 0.00 0.07 0.07 52 1012.4
20260508204424 54 232 3.5 7.8 0.00 0.07 0.07 53 1012.3
20260508203919 55 257 6.1 12.2 0.00 0.07 0.07 52 1012.5
20260508203416 55 269 3.5 11.3 0.00 0.07 0.07 52 1012.5
20260508202912 57 242 7.0 7.8 0.00 0.07 0.07 51 1012.3
20260508202410 57 180 1.7 8.7 0.00 0.07 0.07 51 1012.4
20260508201907 55 233 6.1 8.7 0.00 0.07 0.07 54 1012.4
20260508201403 55 256 7.0 9.6 0.00 0.07 0.07 53 1012.4
20260508200859 55 251 4.3 8.7 0.00 0.07 0.07 53 1012.5
20260508200356 56 257 6.1 9.6 0.00 0.07 0.07 51 1012.1
20260508195852 55 257 5.2 7.8 0.00 0.07 0.07 54 1012.3
20260508195349 55 350 1.7 5.2 0.00 0.07 0.07 56 1012.6
20260508194845 55 260 7.0 10.4 0.00 0.07 0.07 54 1012.9
20260508194342 55 283 5.2 13.0 0.00 0.07 0.07 55 1012.6
20260508193839 55 307 5.2 10.4 0.00 0.07 0.07 57 1012.6
20260508193336 54 233 5.2 9.6 0.00 0.07 0.07 57 1012.8
20260508192832 54 258 3.5 7.0 0.00 0.07 0.07 56 1012.5
20260508192329 55 236 4.3 7.8 0.00 0.07 0.07 56 1012.8
20260508191827 54 233 7.8 9.6 0.00 0.07 0.07 58 1012.6
20260508191324 56 277 3.5 6.1 0.00 0.07 0.07 60 1012.9
20260508190821 51 256 5.2 9.6 0.00 0.07 0.07 63 1013.0
20260508190317 53 247 5.2 7.0 0.00 0.07 0.07 66 1012.9
20260508185813 53 244 4.3 13.0 0.00 0.07 0.07 64 1012.9
20260508185311 54 225 3.5 15.6 0.00 0.07 0.07 65 1012.9
20260508184808 55 235 5.2 7.0 0.00 0.07 0.07 60 1013.1
20260508184305 53 239 5.2 5.2 0.00 0.07 0.07 70 1013.0
20260508183803 51 237 9.6 13.0 0.00 0.07 0.07 68 1013.2
20260508183259 51 217 7.8 14.8 0.00 0.07 0.07 66 1013.1
20260508182755 52 217 8.7 11.3 0.00 0.07 0.07 67 1013.3
20260508182252 52 181 4.3 10.4 0.00 0.07 0.07 65 1013.3
20260508181747 50 250 4.3 7.8 0.00 0.07 0.07 64 1013.2
20260508181244 50 237 5.2 10.4 0.00 0.07 0.07 65 1013.2
20260508180741 50 265 4.3 8.7 0.00 0.07 0.07 64 1013.1
20260508180238 51 321 9.6 11.3 0.00 0.07 0.07 62 1013.1
20260508175734 51 351 4.3 13.0 0.00 0.07 0.07 62 1013.0
20260508175231 51 250 9.6 11.3 0.00 0.07 0.07 61 1012.9
20260508174729 50 226 6.1 10.4 0.00 0.07 0.07 62 1013.1
20260508174226 50 242 8.7 13.0 0.00 0.07 0.07 59 1013.0
20260508173722 51 288 4.3 6.1 0.00 0.07 0.07 59 1012.9
20260508173218 51 252 3.5 5.2 0.00 0.07 0.07 62 1012.8
20260508172715 51 232 7.0 8.7 0.00 0.07 0.07 59 1012.9
20260508172212 52 265 4.3 9.6 0.00 0.07 0.07 59 1012.8
20260508171709 53 273 2.6 7.8 0.00 0.07 0.07 60 1012.6
20260508171205 52 227 3.5 7.8 0.00 0.07 0.07 60 1012.5
20260508170702 52 248 7.0 7.8 0.00 0.07 0.07 59 1012.6
20260508170200 53 233 3.5 9.6 0.00 0.07 0.07 60 1012.5
20260508165657 53 245 3.5 5.2 0.00 0.07 0.07 57 1012.6
20260508165154 53 246 6.1 7.8 0.00 0.07 0.07 59 1012.7
20260508164650 53 280 1.7 6.1 0.00 0.07 0.07 61 1012.6
20260508164147 54 288 5.2 8.7 0.00 0.07 0.07 57 1012.7
20260508163645 52 293 3.5 5.2 0.00 0.07 0.07 65 1012.7
20260508163142 51 250 4.3 11.3 0.00 0.07 0.07 60 1012.9
20260508162637 51 239 9.6 10.4 0.00 0.07 0.07 59 1012.9
20260508162135 53 247 4.3 7.8 0.00 0.07 0.07 59 1012.8
20260508161632 51 239 3.5 8.7 0.00 0.07 0.07 60 1013.0
20260508161129 53 230 8.7 10.4 0.00 0.07 0.07 60 1012.8
20260508160628 52 239 3.5 7.0 0.00 0.07 0.07 59 1013.0
20260508160125 52 231 3.5 5.2 0.00 0.07 0.07 61 1013.0
20260508155621 50 228 7.8 7.8 0.00 0.07 0.07 61 1012.9
20260508155118 50 229 4.3 7.8 0.00 0.07 0.07 61 1013.2
20260508154615 49 264 5.2 6.1 0.00 0.07 0.07 62 1013.2
20260508154112 49 254 4.3 4.3 0.00 0.07 0.07 61 1013.3
20260508153609 50 284 2.6 5.2 0.00 0.07 0.07 63 1013.2
20260508153106 51 267 4.3 7.8 0.00 0.07 0.07 58 1013.0
20260508152603 50 346 3.5 9.6 0.00 0.07 0.07 61 1013.1
20260508152058 50 246 5.2 10.4 0.00 0.07 0.07 63 1013.1
20260508151555 50 248 6.1 12.2 0.00 0.07 0.07 60 1013.1
20260508151052 50 239 5.2 5.2 0.00 0.07 0.07 67 1013.2
20260508150549 49 252 3.5 9.6 0.00 0.07 0.07 65 1013.3
20260508150044 50 184 2.6 9.6 0.00 0.07 0.07 65 1013.2
20260508145542 50 277 5.2 9.6 0.00 0.07 0.07 66 1013.1
20260508145038 49 231 3.5 4.3 0.00 0.07 0.07 67 1013.2
20260508144536 48 178 1.7 4.3 0.00 0.07 0.07 70 1013.4
20260508144033 48 304 2.6 3.5 0.00 0.07 0.07 69 1013.5
20260508143531 48 233 2.6 8.7 0.00 0.07 0.07 70 1013.5
20260508143027 48 224 6.1 10.4 0.00 0.07 0.07 67 1013.4
20260508142524 49 236 2.6 5.2 0.00 0.07 0.07 69 1013.4
20260508142020 48 230 3.5 6.1 0.00 0.07 0.07 71 1013.4
20260508141517 48 286 1.7 7.0 0.00 0.07 0.07 72 1013.4
20260508141015 48 230 4.3 7.0 0.00 0.07 0.07 72 1013.2
20260508140512 49 215 2.6 4.3 0.00 0.07 0.07 70 1013.2
20260508140008 48 220 6.1 7.8 0.00 0.07 0.07 73 1013.3
20260508135504 49 286 3.5 4.3 0.00 0.07 0.07 77 1013.6
20260508135000 48 132 1.7 2.6 0.00 0.07 0.07 74 1013.6
20260508134457 48 265 3.5 5.2 0.00 0.07 0.07 77 1013.6
20260508133954 47 143 0.9 3.5 0.00 0.07 0.07 79 1013.5
20260508133451 47 257 3.5 5.2 0.00 0.07 0.07 80 1013.6
20260508132948 45 198 2.6 7.0 0.00 0.07 0.07 82 1013.9
20260508132446 47 241 7.0 7.0 0.00 0.07 0.07 81 1014.0
20260508131942 47 226 6.1 8.7 0.00 0.07 0.07 80 1014.0
20260508131438 46 334 4.3 5.2 0.00 0.07 0.07 80 1013.9
20260508130935 44 246 4.3 7.0 0.00 0.07 0.07 84 1013.9
20260508130432 44 238 5.2 6.1 0.00 0.07 0.07 83 1014.0
20260508125927 45 247 2.6 3.5 0.00 0.07 0.07 86 1013.9
20260508125424 44 233 4.3 5.2 0.00 0.07 0.07 83 1013.7
20260508124922 43 246 0.0 4.3 0.00 0.07 0.07 84 1014.1
20260508124419 43 314 0.9 5.2 0.00 0.07 0.07 90 1014.0
20260508123917 42 249 2.6 3.5 0.00 0.07 0.07 88 1013.9
20260508123415 42 319 1.7 7.8 0.00 0.07 0.07 87 1013.9
20260508122911 42 249 2.6 5.2 0.00 0.07 0.07 93 1013.9
20260508122408 42 185 0.9 4.3 0.00 0.07 0.07 96 1013.9
20260508121905 42 300 1.7 2.6 0.00 0.07 0.07 98 1013.9
20260508121404 41 151 0.0 2.6 0.00 0.07 0.07 98 1014.0
20260508120901 41 246 2.6 3.5 0.00 0.07 0.07 99 1014.1
20260508120358 41 293 2.6 3.5 0.00 0.07 0.07 99 1013.7
20260508115856 41 195 2.6 2.6 0.00 0.07 0.07 99 1013.7
20260508115353 41 264 2.6 3.5 0.00 0.07 0.07 99 1014.0
20260508114849 41 26 0.0 0.9 0.00 0.07 0.07 99 1013.6
20260508114347 40 288 1.7 2.6 0.00 0.07 0.07 99 1013.9
20260508113843 39 221 2.6 3.5 0.00 0.07 0.07 99 1014.0
20260508113341 39 184 0.9 1.7 0.00 0.07 0.07 99 1014.1
20260508112838 39 247 2.6 3.5 0.00 0.07 0.07 99 1014.0
20260508112335 39 244 2.6 3.5 0.00 0.07 0.07 99 1013.9
20260508111831 38 109 0.0 1.7 0.00 0.07 0.07 99 1013.7
20260508111328 38 254 0.0 2.6 0.00 0.07 0.07 99 1014.0
20260508110826 38 333 0.0 1.7 0.00 0.07 0.07 99 1013.9
20260508110323 38 72 0.0 2.6 0.00 0.07 0.07 99 1013.9
20260508105823 37 79 0.9 1.7 0.00 0.07 0.07 99 1013.9
20260508105320 36 222 0.0 1.7 0.00 0.07 0.07 99 1013.5
20260508104817 36 120 0.0 1.7 0.00 0.07 0.07 99 1013.6
20260508104313 35 107 0.9 2.6 0.00 0.07 0.07 99 1013.5
20260508103811 35 60 0.0 1.7 0.00 0.07 0.07 99 1013.5
20260508103308 35 50 0.0 0.9 0.00 0.07 0.07 99 1013.2
20260508102806 35 327 0.0 1.7 0.00 0.07 0.07 99 1013.4
20260508102306 35 292 1.7 1.7 0.00 0.07 0.07 99 1013.3
20260508101800 35 271 1.7 1.7 0.00 0.07 0.07 99 1013.2
20260508101258 35 2 0.0 1.7 0.00 0.07 0.07 99 1013.1
20260508100755 35 65 0.0 1.7 0.00 0.07 0.07 99 1013.2
20260508100253 35 7 0.0 1.7 0.00 0.07 0.07 99 1013.3
20260508095749 35 43 0.9 1.7 0.00 0.07 0.07 99 1013.3
20260508095247 35 16 0.9 1.7 0.00 0.07 0.07 99 1013.1
20260508094743 35 240 1.7 1.7 0.00 0.07 0.07 99 1013.2
20260508094240 35 304 0.0 1.7 0.00 0.07 0.07 99 1012.9
20260508093737 35 74 1.7 2.6 0.00 0.07 0.07 99 1013.1
20260508093235 35 269 0.9 1.7 0.00 0.07 0.07 99 1013.1
20260508092732 36 259 0.9 1.7 0.00 0.07 0.07 99 1013.0
20260508092230 36 209 0.0 1.7 0.00 0.07 0.07 99 1013.0
20260508091728 36 278 0.0 1.7 0.00 0.07 0.07 99 1012.8
20260508091224 36 213 1.7 2.6 0.00 0.07 0.07 99 1013.0
20260508090722 36 82 0.9 1.7 0.00 0.07 0.07 99 1013.0
20260508090220 37 64 0.9 1.7 0.00 0.07 0.07 99 1013.0
20260508085715 37 266 0.0 0.9 0.00 0.07 0.07 99 1013.0
20260508085213 37 252 0.9 2.6 0.00 0.07 0.07 99 1012.9
20260508084708 37 237 0.9 1.7 0.00 0.07 0.07 99 1012.8
20260508084206 37 72 0.0 1.7 0.00 0.07 0.07 99 1012.7
20260508083704 37 54 1.7 1.7 0.00 0.07 0.07 99 1012.8
20260508083201 37 22 0.0 1.7 0.00 0.07 0.07 99 1012.9
20260508082656 38 32 0.0 0.9 0.00 0.07 0.07 99 1012.8
20260508082153 38 66 0.0 0.0 0.00 0.07 0.07 99 1012.8
20260508081651 38 66 0.0 0.0 0.00 0.07 0.07 99 1012.7
20260508081147 38 282 0.0 0.0 0.00 0.07 0.07 99 1012.7
20260508080645 38 209 0.0 0.0 0.00 0.07 0.07 99 1012.7
20260508080143 39 127 0.9 1.7 0.00 0.07 0.07 99 1012.6
20260508075639 39 73 0.0 0.9 0.00 0.07 0.07 99 1012.7
20260508075136 39 116 0.0 0.9 0.00 0.07 0.07 99 1012.5
20260508074634 39 110 0.9 0.9 0.00 0.07 0.07 99 1012.6
20260508074130 39 212 0.0 0.0 0.00 0.07 0.07 99 1012.6
20260508073627 39 321 0.0 0.0 0.00 0.07 0.07 99 1012.5
20260508073126 39 224 0.0 0.0 0.00 0.07 0.07 99 1012.6
20260508072620 39 113 0.0 0.0 0.00 0.07 0.07 99 1012.7
20260508072118 40 69 0.0 0.0 0.00 0.07 0.07 99 1012.5
20260508071616 40 143 0.0 0.9 0.00 0.07 0.07 99 1012.5
20260508071114 40 341 0.0 1.7 0.00 0.07 0.07 99 1012.5
20260508070611 40 269 0.0 1.7 0.00 0.07 0.07 99 1012.5
20260508070109 40 180 0.9 1.7 0.00 0.07 0.07 99 1012.4
20260508065606 41 220 1.7 3.5 0.00 0.07 0.07 99 1012.5
20260508065104 40 233 1.7 2.6 0.00 0.07 0.07 99 1012.4
20260508064602 40 316 0.9 1.7 0.00 0.07 0.07 99 1012.4
20260508064059 41 83 0.9 0.9 0.02 0.07 0.07 99 1012.6
20260508063556 41 283 0.9 1.7 0.02 0.07 0.07 99 1012.6
20260508063055 41 123 0.0 0.9 0.00 0.07 0.07 99 1012.8
20260508062552 41 249 0.0 0.9 0.00 0.07 0.07 98 1012.9
20260508062048 41 284 0.0 0.9 0.00 0.07 0.07 98 1012.9
20260508061546 41 248 2.6 2.6 0.00 0.07 0.07 98 1013.0
20260508061043 41 247 1.7 2.6 0.00 0.07 0.07 98 1012.8
20260508060539 41 245 1.7 2.6 0.00 0.07 0.07 97 1012.7
20260508060037 41 314 0.9 1.7 0.00 0.07 0.07 97 1012.6
20260508055532 41 44 0.0 0.0 0.00 0.07 0.07 97 1012.7
20260508055030 41 32 0.0 0.9 0.00 0.07 0.07 97 1012.8
20260508054526 41 293 0.0 1.7 0.00 0.07 0.07 97 1012.9
20260508054023 41 103 0.0 0.9 0.00 0.07 0.07 96 1013.0
20260508053520 41 280 0.9 2.6 0.02 0.07 0.07 96 1013.1
20260508053019 41 230 1.7 1.7 0.09 0.07 0.07 96 1013.1
20260508052515 41 228 1.7 1.7 0.14 0.07 0.07 95 1013.1
20260508052012 41 249 2.6 2.6 0.17 0.06 0.06 94 1013.4
20260508051508 41 258 0.9 2.6 0.12 0.04 0.04 93 1013.3
20260508051003 42 269 1.7 4.3 0.09 0.03 0.03 93 1013.6
20260508050500 42 232 3.5 7.0 0.05 0.02 0.02 91 1013.6
20260508045957 42 277 4.3 5.2 0.05 0.01 0.01 94 1013.4
20260508045454 43 224 1.7 3.5 0.05 0.01 0.01 92 1012.7
20260508044951 44 271 3.5 5.2 0.02 0.00 0.00 87 1012.2
20260508044449 43 353 0.0 0.9 0.00 0.00 0.00 87 1011.8
20260508043943 43 320 1.7 1.7 0.00 0.00 0.00 87 1011.6
20260508043441 43 2 0.0 1.7 0.00 0.00 0.00 86 1011.4
20260508042937 43 260 0.9 1.7 0.00 0.00 0.00 85 1011.5
20260508042436 44 321 0.0 0.9 0.00 0.00 0.00 84 1011.2
20260508041932 43 38 0.0 0.9 0.00 0.00 0.00 81 1010.8
20260508041429 44 124 0.0 0.9 0.00 0.00 0.00 82 1011.1
20260508040925 44 198 0.9 1.7 0.00 0.00 0.00 82 1011.1
20260508040423 43 223 0.9 1.7 0.00 0.00 0.00 83 1011.0
20260508035921 43 234 1.7 1.7 0.00 0.01 0.01 82 1011.1
20260508035417 43 220 0.9 0.9 0.00 0.01 0.01 82 1011.1